When you browse on this site, cookies collect data to enhance your experience and personalize the content and advertising you see.
Visit our Privacy Policy to learn more. By continuing to use the site, you agree to this use of cookies and data.
  • în România
  • Lista ţărilor
  • Pe 7 zile
  • Temperatura apei
  • Meteo pe hartă
  • Widget-uri
  • user-avatar
    Intrare

    Meteo pe oră la San Luis

    Astăzi, 22 Noiembrie, Vineri

    Timp Temperatura Precipitaţii Vânt Presiune Umiditate
    00:00 +23°C° 0.3 mm 6 m/s 697 mmHg 72%
    01:00 +23°C° 0.3 mm 5 m/s 697 mmHg 71%
    02:00 +22°C° 0 mm 4 m/s 698 mmHg 73%
    03:00 +22°C° 0.1 mm 4 m/s 698 mmHg 74%
    04:00 +22°C° 0.1 mm 4 m/s 698 mmHg 75%
    05:00 +22°C° 0.1 mm 5 m/s 699 mmHg 76%
    06:00 +22°C° 0 mm 5 m/s 699 mmHg 76%
    07:00 +22°C° 0 mm 6 m/s 700 mmHg 76%
    08:00 +22°C° 0 mm 7 m/s 701 mmHg 75%
    09:00 +24°C° 0 mm 7 m/s 701 mmHg 67%
    10:00 +27°C° 0 mm 7 m/s 701 mmHg 59%
    11:00 +28°C° 0 mm 6 m/s 701 mmHg 51%
    12:00 +29°C° 0.1 mm 7 m/s 701 mmHg 51%
    13:00 +29°C° 0.1 mm 8 m/s 700 mmHg 50%
    14:00 +29°C° 0.1 mm 8 m/s 700 mmHg 50%
    15:00 +29°C° 0.2 mm 9 m/s 700 mmHg 52%
    16:00 +28°C° 0.2 mm 9 m/s 699 mmHg 54%
    17:00 +28°C° 0.2 mm 10 m/s 699 mmHg 55%
    18:00 +27°C° 0.2 mm 10 m/s 699 mmHg 59%
    19:00 +26°C° 0.2 mm 9 m/s 699 mmHg 62%
    20:00 +24°C° 0.2 mm 9 m/s 699 mmHg 65%
    21:00 +23°C° 0.5 mm 9 m/s 699 mmHg 69%
    22:00 +22°C° 0.5 mm 8 m/s 699 mmHg 73%
    23:00 +22°C° 0.5 mm 7 m/s 699 mmHg 77%

    Mâine, 23 Noiembrie, Sâmbătă

    Timp Temperatura Precipitaţii Vânt Presiune Umiditate
    00:00 +21°C° 0.8 mm 6 m/s 699 mmHg 78%
    01:00 +21°C° 0.8 mm 5 m/s 699 mmHg 80%
    02:00 +21°C° 0.8 mm 4 m/s 699 mmHg 81%
    03:00 +21°C° 1.1 mm 5 m/s 699 mmHg 83%
    04:00 +21°C° 1.1 mm 5 m/s 699 mmHg 84%
    05:00 +20°C° 1.1 mm 6 m/s 699 mmHg 86%
    06:00 +21°C° 1.4 mm 6 m/s 699 mmHg 83%
    07:00 +22°C° 1.4 mm 6 m/s 699 mmHg 81%
    08:00 +22°C° 1.4 mm 6 m/s 700 mmHg 78%
    09:00 +24°C° 0.8 mm 6 m/s 700 mmHg 72%
    10:00 +26°C° 0.8 mm 7 m/s 700 mmHg 66%
    11:00 +27°C° 0.8 mm 7 m/s 700 mmHg 60%
    12:00 +28°C° 0.6 mm 8 m/s 699 mmHg 56%
    13:00 +29°C° 0.6 mm 8 m/s 699 mmHg 52%
    14:00 +31°C° 0.6 mm 9 m/s 698 mmHg 48%
    15:00 +31°C° 0.2 mm 8 m/s 698 mmHg 47%
    16:00 +30°C° 0.2 mm 7 m/s 697 mmHg 47%
    17:00 +30°C° 0.2 mm 6 m/s 696 mmHg 47%
    18:00 +29°C° 0 mm 6 m/s 696 mmHg 51%
    19:00 +27°C° 0 mm 6 m/s 696 mmHg 54%
    20:00 +26°C° 0 mm 5 m/s 696 mmHg 58%
    21:00 +24°C° 0 mm 6 m/s 696 mmHg 58%
    22:00 +24°C° 0 mm 6 m/s 696 mmHg 58%
    23:00 +23°C° 0 mm 6 m/s 696 mmHg 58%

    Poimâine, 24 Noiembrie, Duminică

    Timp Temperatura Precipitaţii Vânt Presiune Umiditate
    00:00 +23°C° 0 mm 6 m/s 695 mmHg 58%
    01:00 +22°C° 0 mm 6 m/s 694 mmHg 57%
    02:00 +22°C° 0 mm 6 m/s 694 mmHg 56%
    03:00 +22°C° 0 mm 6 m/s 693 mmHg 57%
    04:00 +22°C° 0 mm 6 m/s 693 mmHg 58%
    05:00 +21°C° 0 mm 6 m/s 693 mmHg 58%
    06:00 +23°C° 0 mm 8 m/s 693 mmHg 56%
    07:00 +24°C° 0 mm 9 m/s 693 mmHg 54%
    08:00 +26°C° 0 mm 11 m/s 693 mmHg 52%
    09:00 +27°C° 0 mm 11 m/s 693 mmHg 50%
    10:00 +28°C° 0 mm 10 m/s 693 mmHg 48%
    11:00 +31°C° 0 mm 10 m/s 693 mmHg 46%
    12:00 +31°C° 0 mm 9 m/s 692 mmHg 45%
    13:00 +32°C° 0 mm 9 m/s 692 mmHg 43%
    14:00 +33°C° 0 mm 8 m/s 691 mmHg 42%
    15:00 +32°C° 0 mm 8 m/s 691 mmHg 44%
    16:00 +32°C° 0 mm 7 m/s 690 mmHg 46%
    17:00 +30°C° 0 mm 7 m/s 690 mmHg 47%
    18:00 +28°C° 1.8 mm 6 m/s 690 mmHg 59%
    19:00 +24°C° 1.8 mm 6 m/s 690 mmHg 71%
    20:00 +22°C° 1.8 mm 6 m/s 691 mmHg 83%
    21:00 +21°C° 3.7 mm 6 m/s 691 mmHg 85%
    22:00 +20°C° 3.7 mm 7 m/s 692 mmHg 87%
    23:00 +20°C° 3.7 mm 7 m/s 692 mmHg 88%

    25 Noiembrie, Luni

    Timp Temperatura Precipitaţii Vânt Presiune Umiditate
    00:00 +18°C° 1.4 mm 7 m/s 692 mmHg 88%
    01:00 +17°C° 1.4 mm 7 m/s 692 mmHg 87%
    02:00 +17°C° 1.4 mm 7 m/s 692 mmHg 86%
    03:00 +17°C° 0.1 mm 6 m/s 692 mmHg 84%
    04:00 +16°C° 0.1 mm 6 m/s 693 mmHg 82%
    05:00 +16°C° 0.1 mm 5 m/s 693 mmHg 80%
    06:00 +17°C° 0 mm 5 m/s 693 mmHg 76%
    07:00 +19°C° 0 mm 6 m/s 694 mmHg 71%
    08:00 +20°C° 0 mm 6 m/s 694 mmHg 66%
    09:00 +20°C° 0 mm 6 m/s 695 mmHg 64%
    10:00 +21°C° 0 mm 7 m/s 695 mmHg 63%
    11:00 +22°C° 0 mm 7 m/s 695 mmHg 61%
    12:00 +22°C° 0 mm 8 m/s 695 mmHg 59%
    13:00 +23°C° 0 mm 8 m/s 694 mmHg 56%
    14:00 +24°C° 0 mm 8 m/s 694 mmHg 54%
    15:00 +24°C° 0 mm 8 m/s 694 mmHg 55%
    16:00 +23°C° 0 mm 7 m/s 693 mmHg 55%
    17:00 +23°C° 0 mm 7 m/s 693 mmHg 56%
    18:00 +22°C° 0 mm 7 m/s 693 mmHg 60%
    19:00 +21°C° 0 mm 6 m/s 693 mmHg 64%
    20:00 +20°C° 0 mm 6 m/s 693 mmHg 68%
    21:00 +19°C° 0 mm 6 m/s 694 mmHg 73%
    22:00 +19°C° 0 mm 6 m/s 694 mmHg 77%
    23:00 +17°C° 0 mm 7 m/s 695 mmHg 81%

    26 Noiembrie, Marţi

    Timp Temperatura Precipitaţii Vânt Presiune Umiditate
    00:00 +16°C° 0.1 mm 7 m/s 695 mmHg 82%
    01:00 +16°C° 0.1 mm 7 m/s 695 mmHg 83%
    02:00 +15°C° 0.1 mm 8 m/s 695 mmHg 84%
    03:00 +15°C° 0.2 mm 8 m/s 695 mmHg 84%
    04:00 +13°C° 0.2 mm 9 m/s 695 mmHg 84%
    05:00 +13°C° 0.2 mm 9 m/s 696 mmHg 84%
    06:00 +13°C° 0.3 mm 9 m/s 696 mmHg 80%
    07:00 +12°C° 0.3 mm 9 m/s 697 mmHg 76%
    08:00 +12°C° 0.3 mm 9 m/s 698 mmHg 72%
    09:00 +12°C° 0.1 mm 9 m/s 698 mmHg 68%
    10:00 +12°C° 0.1 mm 8 m/s 698 mmHg 64%
    11:00 +12°C° 0.1 mm 8 m/s 699 mmHg 59%
    12:00 +12°C° 0 mm 8 m/s 698 mmHg 59%
    13:00 +13°C° 0 mm 8 m/s 698 mmHg 58%
    14:00 +13°C° 0 mm 8 m/s 698 mmHg 58%
    15:00 +13°C° 0 mm 8 m/s 697 mmHg 58%
    16:00 +13°C° 0 mm 8 m/s 697 mmHg 58%
    17:00 +13°C° 0 mm 9 m/s 696 mmHg 58%
    18:00 +13°C° 0 mm 8 m/s 697 mmHg 60%
    19:00 +12°C° 0 mm 7 m/s 697 mmHg 63%
    20:00 +11°C° 0 mm 6 m/s 697 mmHg 65%
    21:00 +12°C° 0 mm 5 m/s 698 mmHg 66%
    22:00 +12°C° 0 mm 3 m/s 698 mmHg 67%
    23:00 +13°C° 0 mm 2 m/s 698 mmHg 68%

    27 Noiembrie, Miercuri

    Timp Temperatura Precipitaţii Vânt Presiune Umiditate
    00:00 +13°C° 0 mm 2 m/s 697 mmHg 70%
    01:00 +13°C° 0 mm 2 m/s 697 mmHg 71%
    02:00 +13°C° 0 mm 2 m/s 696 mmHg 73%
    03:00 +12°C° 0 mm 1 m/s 696 mmHg 75%
    04:00 +11°C° 0 mm 1 m/s 696 mmHg 76%
    05:00 +10°C° 0 mm 0 m/s 696 mmHg 78%
    06:00 +13°C° 0 mm 1 m/s 697 mmHg 68%
    07:00 +16°C° 0 mm 1 m/s 698 mmHg 59%
    08:00 +19°C° 0 mm 1 m/s 699 mmHg 49%
    09:00 +20°C° 0 mm 2 m/s 699 mmHg 42%
    10:00 +21°C° 0 mm 3 m/s 699 mmHg 36%
    11:00 +23°C° 0 mm 4 m/s 700 mmHg 29%
    12:00 +25°C° 0 mm 4 m/s 699 mmHg 28%
    13:00 +25°C° 0 mm 3 m/s 699 mmHg 27%
    14:00 +26°C° 0 mm 3 m/s 698 mmHg 26%
    15:00 +26°C° 0 mm 4 m/s 698 mmHg 27%
    16:00 +26°C° 0 mm 5 m/s 697 mmHg 29%
    17:00 +26°C° 0 mm 5 m/s 697 mmHg 30%
    18:00 +23°C° 0 mm 6 m/s 697 mmHg 35%
    19:00 +21°C° 0 mm 6 m/s 697 mmHg 39%
    20:00 +19°C° 0 mm 6 m/s 697 mmHg 44%
    21:00 +19°C° 0 mm 6 m/s 697 mmHg 45%
    22:00 +17°C° 0 mm 6 m/s 697 mmHg 46%
    23:00 +17°C° 0 mm 6 m/s 697 mmHg 48%
    Arată mai mult